Probability
0 0 0 0 0 0 0 0 0 0 0 0 0 1 2 2 1 0 1 3 4 3 1 1 1 1 0 0 0 0 0 0 0 0 0 0 0 0 0 0 0 0 0 0
0 0 0 0 0 0 0 0 0 0 0 0 0 0 1 1 1 0 1 3 4 4 2 1 2 2 1 0 0 1 1 0 0 0 0 0 0 0 0 0 0 0 0 0
0 0 0 0 0 0 0 0 0 0 0 0 0 0 0 1 2 1 1 3 5 4 3 2 3 2 1 0 1 2 2 1 1 1 0 0 0 0 0 0 0 0 0 0
0 0 0 0 0 0 0 0 0 0 0 0 0 0 0 1 2 1 1 3 4 4 3 3 3 2 1 2 3 4 4 3 3 2 1 0 1 1 1 0 0 0 0 0
0 0 0 0 0 0 0 0 0 0 0 0 0 0 0 1 1 1 1 2 3 3 3 2 2 2 2 3 4 5 6 6 5 5 3 2 2 2 2 1 1 1 1 1
0 0 0 0 0 0 0 0 0 0 0 0 0 0 0 1 0 0 1 2 2 3 3 2 2 3 3 4 4 5 7 8 8 8 7 4 3 3 3 3 3 3 2 2
0 0 0 0 0 0 0 0 0 0 0 0 0 0 0 0 0 0 1 1 2 3 2 2 2 3 4 4 5 6 7 9 9 10 9 7 4 4 4 4 4 3 2 3
0 0 0 0 0 0 0 0 0 0 0 0 0 1 0 0 0 1 2 1 2 2 2 2 2 3 3 3 4 6 7 8 9 10 10 9 7 5 5 5 4 3 2 2
0 0 0 0 0 0 0 0 0 0 0 0 0 0 0 0 0 1 2 2 1 2 2 2 2 2 2 3 4 7 8 8 8 9 10 10 8 7 8 8 7 5 3 2
0 0 0 0 0 0 0 0 0 0 0 0 0 0 0 1 1 1 1 1 1 1 2 3 3 3 4 4 5 6 7 7 7 7 8 8 9 10 10 10 10 8 6 4
0 0 0 0 0 0 0 0 0 0 0 0 0 0 0 1 2 1 0 0 0 1 3 4 4 5 5 5 5 5 5 5 6 6 7 8 10 11 11 11 11 11 9 7
0 0 0 0 0 0 0 0 0 0 0 0 0 0 0 1 1 1 0 1 2 3 3 4 4 6 6 5 4 5 5 5 6 5 7 9 11 12 11 10 10 11 9 7
0 0 0 0 0 0 0 0 0 0 0 0 0 1 1 1 1 1 1 3 5 5 5 4 5 7 7 5 5 7 7 6 6 6 7 10 12 12 11 9 9 9 8 7
0 0 0 0 0 0 1 1 0 0 0 0 1 2 2 2 1 2 3 5 8 9 7 5 6 9 9 7 7 8 8 8 8 10 13 14 13 13 12 10 9 8 7 7
0 0 0 0 1 1 2 2 1 1 0 0 1 2 2 2 2 3 4 7 11 12 9 6 7 10 11 8 7 9 10 9 10 15 19 20 17 15 13 10 9 7 7 7
0 0 0 0 1 2 2 3 3 2 1 1 2 2 2 3 4 5 6 10 13 13 9 8 9 11 12 8 7 10 13 11 12 16 20 21 20 17 14 11 9 8 7 6
0 0 0 0 1 1 1 3 3 3 2 2 2 2 4 5 6 7 9 12 15 13 9 10 14 15 13 12 12 15 18 16 15 16 17 18 18 16 14 12 11 9 8 7
0 0 0 0 0 0 1 2 2 2 2 1 1 3 5 7 8 8 11 14 14 12 10 12 16 17 17 17 19 22 23 22 19 18 17 15 14 13 11 10 11 11 10 10
0 0 0 0 0 0 1 1 1 1 1 1 2 5 7 9 10 10 12 14 14 12 12 14 16 18 19 20 22 24 25 25 23 21 20 17 13 11 10 9 10 11 11 11
0 0 0 0 0 0 0 0 0 0 1 2 4 6 8 10 12 12 12 15 16 15 15 17 18 17 17 18 21 22 24 26 25 24 21 17 13 11 10 11 11 11 12 12
0 0 0 0 0 0 0 0 0 0 1 3 5 7 8 9 11 12 13 15 18 17 16 17 17 15 14 16 19 20 20 21 22 21 19 15 12 11 11 12 14 14 14 13
0 0 0 0 0 0 0 0 0 1 3 5 7 9 10 11 12 14 16 18 18 17 15 14 13 13 13 14 17 17 15 13 12 13 14 13 12 12 12 14 15 16 15 15
1 0 1 1 1 0 0 0 0 2 5 8 9 11 13 13 14 15 18 19 17 15 14 12 12 12 13 13 14 13 9 6 6 8 10 11 12 12 13 15 17 16 15 14
1 1 2 3 3 2 1 1 2 4 7 11 13 13 14 13 13 15 16 15 13 12 12 12 11 11 11 11 10 8 6 5 6 7 7 8 10 12 12 13 14 14 13 13
1 2 3 3 3 3 3 2 4 6 9 12 13 13 12 11 11 12 11 9 8 9 9 9 8 8 9 9 8 6 6 6 7 8 6 6 8 10 10 9 10 10 10 10
0 1 2 2 1 2 3 3 4 7 9 10 12 12 10 10 10 9 7 5 5 6 6 6 6 6 6 8 8 6 7 8 9 9 6 5 7 9 9 8 7 7 7 7
Wind_Speed
2 4 3 7 7 5 4 3 3 3 2 3 4 3 4 7 7 7 7 8 9 9 7 6 6 6 5 4 4 4 4 3 3 2 2 2 1 0 0 0 0 1 1 2
3 3 7 4 4 3 3 2 2 2 0 3 2 3 3 7 10 10 10 10 10 8 6 6 6 6 6 6 5 5 4 4 4 3 2 2 2 1 1 0 0 0 1 2
6 6 4 4 3 3 3 5 4 3 1 2 2 4 2 4 5 6 7 8 9 11 11 9 8 7 6 7 7 6 5 4 4 3 2 2 2 2 1 1 0 0 1 1
4 4 3 3 4 5 4 5 5 4 3 1 1 3 6 3 4 7 8 8 9 10 10 9 9 8 8 8 7 6 5 5 4 4 4 4 3 2 2 1 1 0 1 1
5 3 4 4 5 6 5 2 3 3 3 1 1 1 7 1 5 9 10 11 10 9 10 11 11 10 8 7 6 6 5 5 5 5 5 4 3 2 1 1 1 0 0 0
4 2 4 5 3 5 5 6 6 6 5 1 3 3 7 5 8 7 9 11 10 9 9 9 9 8 7 6 6 6 6 6 5 6 5 5 5 4 3 2 2 1 0 0
3 3 2 2 2 2 6 7 4 4 3 5 2 3 9 7 7 8 9 10 10 9 9 9 9 9 9 9 8 7 7 7 6 6 6 6 6 6 5 4 3 2 1 1
2 4 4 3 5 6 4 9 8 5 5 4 1 5 8 5 5 4 5 6 7 9 9 9 10 10 10 9 9 8 8 7 6 6 6 5 5 4 3 4 3 3 2 2
6 6 4 2 2 8 5 3 6 7 2 1 4 6 8 3 2 1 2 4 6 8 9 10 9 9 9 9 9 9 8 7 7 7 6 5 5 5 4 4 3 2 2 2
7 4 4 2 4 4 5 8 6 6 5 3 5 5 5 5 3 2 2 3 5 6 7 8 8 8 8 8 8 7 8 8 7 6 6 5 5 5 4 4 4 3 3 2
4 4 3 2 3 5 4 4 5 5 5 6 3 8 7 7 5 4 4 4 5 7 8 8 7 7 7 6 7 7 7 6 6 6 6 5 5 4 4 4 4 4 3 3
3 6 2 4 3 2 4 6 8 6 4 4 4 9 4 4 3 4 4 3 3 5 6 6 6 6 7 7 7 7 7 7 6 6 5 5 4 4 4 4 4 3 3 2
5 6 3 5 5 2 2 3 4 6 6 5 5 8 3 0 1 2 2 2 2 3 4 4 5 5 6 6 7 7 7 7 6 5 5 5 5 5 5 4 4 3 3 3
6 5 7 9 8 4 2 3 4 6 5 5 7 8 6 3 3 2 2 2 3 4 5 5 4 4 5 5 5 6 5 6 6 6 6 6 6 6 5 5 4 4 4 4
5 4 3 4 4 3 4 5 6 6 8 8 8 8 9 6 5 4 3 3 3 4 4 5 6 5 4 4 4 5 5 5 5 6 6 6 5 5 4 4 4 4 4 4
4 3 2 1 1 2 2 3 5 4 3 4 3 6 5 3 1 2 3 4 5 5 5 5 6 5 5 5 5 5 5 5 5 6 6 5 5 5 5 4 4 4 4 3
2 4 3 2 2 2 3 5 5 4 3 6 6 7 3 2 4 5 5 5 6 5 5 5 5 5 5 5 5 6 5 4 5 5 5 5 5 5 4 4 4 4 4 4
5 4 4 2 2 4 8 2 4 4 2 3 3 4 4 4 3 2 2 4 4 4 4 4 4 3 3 4 4 5 5 5 4 4 3 3 4 4 3 3 4 4 3 4
5 7 5 4 3 5 5 2 3 4 3 3 3 2 1 1 2 2 1 2 4 4 3 3 3 3 3 4 4 5 5 4 4 3 3 3 4 3 3 3 3 3 3 3
4 4 6 5 4 6 7 3 1 4 4 4 3 4 3 3 1 4 2 0 1 1 1 1 2 3 4 3 5 5 4 4 3 3 3 3 4 4 4 4 3 2 2 3
3 3 3 4 4 7 5 3 3 4 8 3 3 4 5 4 5 3 0 1 1 2 2 3 4 3 3 4 5 5 4 3 3 3 3 3 3 3 3 3 2 2 2 2
4 4 4 4 3 7 3 2 4 6 3 2 3 4 4 2 1 1 2 2 3 4 4 4 5 4 3 4 5 4 3 2 2 3 3 2 2 2 2 2 2 2 2 2
3 5 5 6 7 5 2 3 4 2 2 3 2 3 4 3 2 2 2 3 3 4 4 3 5 4 4 3 4 3 2 2 3 3 2 2 2 2 2 3 2 2 2 2
2 1 2 2 4 3 3 3 2 1 1 2 2 4 4 3 3 3 3 3 3 3 3 4 5 5 3 2 2 2 2 3 4 3 2 2 2 1 1 1 2 2 2 2
3 1 1 2 4 4 4 3 2 2 1 2 3 3 4 5 4 3 3 2 3 2 3 4 4 4 2 1 1 1 2 3 4 3 2 2 1 1 1 1 1 2 2 3
4 5 4 6 6 4 6 5 3 1 1 2 4 4 3 4 4 3 3 2 3 3 3 3 4 4 2 2 1 1 1 3 4 3 2 1 1 1 1 1 1 2 0 1
Wind_Direction
106 95 194 208 196 188 168 179 237 255 210 162 207 231 206 185 191 195 192 193 196 203 203 185 181 178 169 171 172 170 166 166 150 141 144 143 174 206 279 255 215 167 145 136
60 236 223 194 183 172 170 199 249 301 288 162 214 259 225 195 202 200 198 198 199 199 193 188 182 181 180 181 183 181 181 175 173 172 160 155 153 162 188 298 24 137 148 144
183 225 178 159 170 188 211 192 207 211 27 47 77 320 242 217 210 209 207 201 199 197 196 193 188 189 186 189 191 191 189 184 180 166 125 100 78 56 46 11 344 323 140 137
220 236 166 174 202 170 247 221 184 167 121 295 120 280 281 223 216 218 215 208 208 204 196 192 190 191 196 197 189 188 186 185 178 161 154 157 163 181 209 204 197 56 107 145
229 193 171 198 213 173 208 154 146 147 138 58 16 182 285 240 235 233 219 212 209 205 197 194 194 196 198 191 184 186 184 187 179 169 170 166 177 195 189 149 128 121 40 135
235 222 192 203 202 162 132 74 55 49 72 321 238 175 274 232 222 232 218 212 206 199 197 197 194 186 190 184 180 181 183 192 186 178 178 179 185 183 172 174 172 186 209 305
319 302 255 162 96 72 102 93 43 9 12 254 242 192 249 249 233 222 214 206 201 193 191 192 188 188 190 188 187 184 186 197 190 184 187 190 193 188 189 191 188 186 199 227
171 274 246 187 168 170 166 139 154 187 215 268 280 231 254 267 270 241 210 194 186 185 189 192 194 193 194 194 191 187 189 195 187 188 193 190 188 188 193 191 187 194 206 218
174 240 276 234 165 138 135 151 156 132 144 276 275 281 298 312 332 10 147 155 180 190 192 193 192 194 194 192 192 190 188 191 189 190 188 190 189 188 190 188 189 198 208 208
160 213 276 286 77 43 133 141 107 121 145 234 289 277 255 273 270 271 191 186 193 192 193 193 190 192 194 193 190 185 187 193 192 188 192 197 196 195 191 183 195 203 208 203
141 160 289 24 160 176 112 106 112 120 151 157 231 266 230 218 221 220 218 208 199 192 193 194 190 187 184 180 180 183 188 188 189 193 193 190 190 189 186 194 203 205 205 195
139 124 218 263 266 184 156 160 147 150 197 172 176 261 274 213 220 211 216 209 202 192 192 186 182 174 173 177 180 184 187 191 196 192 186 190 182 174 182 196 201 192 191 195
135 114 87 347 342 15 112 156 150 128 121 153 171 258 310 100 239 229 201 200 193 173 172 167 166 169 177 185 186 187 188 191 188 180 181 182 181 179 189 195 197 192 191 198
120 118 159 191 212 196 197 190 163 133 148 187 213 241 285 281 260 252 212 186 173 170 168 168 175 182 184 186 185 184 186 184 180 175 180 187 190 191 194 192 191 194 193 194
106 138 195 223 219 175 192 198 182 180 183 184 219 223 247 242 230 221 195 175 163 169 172 179 185 190 190 184 183 180 178 175 175 174 184 195 191 186 185 185 189 195 196 199
72 134 141 285 262 171 210 233 203 202 190 196 216 253 252 252 193 184 193 182 186 195 194 191 185 182 187 190 188 180 176 169 165 174 187 183 172 176 185 184 185 189 195 198
97 123 116 243 295 50 255 224 193 186 191 175 203 234 237 225 212 208 203 199 204 207 203 196 192 189 189 188 177 175 173 160 163 178 181 174 171 179 188 180 176 190 199 197
146 122 126 136 81 214 239 235 177 172 209 208 215 230 208 214 219 209 194 202 215 214 209 201 189 187 184 170 163 157 148 151 160 170 170 166 164 174 174 169 183 192 194 195
160 138 126 130 172 258 285 247 166 173 246 233 214 223 174 124 61 341 276 202 207 216 217 209 193 172 153 147 142 133 136 140 149 167 173 173 166 161 164 178 193 188 181 194
77 101 119 132 158 222 240 260 226 122 261 253 199 189 170 112 135 260 277 155 174 139 125 126 123 123 125 124 126 126 129 132 157 177 178 166 160 161 175 188 188 183 181 197
66 67 124 154 194 250 256 296 93 159 236 242 199 187 176 190 211 221 139 54 72 87 100 103 103 108 118 115 121 127 133 165 183 168 157 153 159 168 173 175 168 164 174 186
164 149 171 149 179 245 279 98 174 217 258 225 199 184 176 190 171 133 116 102 89 84 84 97 101 95 95 108 119 128 154 183 148 129 132 141 147 149 145 142 142 147 151 159
195 188 183 187 209 243 253 226 244 218 219 228 193 171 153 146 149 123 101 100 97 101 96 95 108 99 92 101 118 141 172 145 125 119 128 136 126 123 136 149 158 160 162 173
279 149 142 265 273 279 286 300 317 308 237 226 157 144 138 137 136 122 115 104 97 94 105 99 104 105 92 93 132 160 147 129 125 127 127 118 116 118 128 147 163 171 184 194
243 195 147 265 282 319 308 290 302 337 30 98 101 113 131 125 127 128 122 111 106 99 98 103 113 117 112 104 105 94 118 125 120 121 118 114 125 141 150 148 167 191 213 209
215 191 185 228 233 220 263 280 290 302 69 124 111 94 88 121 131 117 116 116 113 110 102 101 94 92 92 81 63 66 122 127 122 116 115 121 130 142 147 143 44 26 263 270